TimePDT,TemperatureF,Dew PointF,Humidity,Sea Level PressureIn,VisibilityMPH,Wind Direction,Wind SpeedMPH,Gust SpeedMPH,PrecipitationIn,Events,Conditions,WindDirDegrees,DateUTC
12:56 AM,39.9,28.0,63,29.99,10.0,ENE,3.5,-,N/A,,Clear,60,2013-03-16 07:56:00
1:56 AM,37.0,26.1,65,30.01,10.0,Calm,Calm,-,N/A,,Clear,0,2013-03-16 08:56:00
2:56 AM,36.0,28.0,73,30.02,10.0,NW,3.5,-,N/A,,Clear,310,2013-03-16 09:56:00
3:56 AM,36.0,28.0,73,30.01,10.0,Calm,Calm,-,N/A,,Clear,0,2013-03-16 10:56:00
4:56 AM,33.1,27.0,78,30.02,10.0,East,3.5,-,N/A,,Clear,100,2013-03-16 11:56:00
5:56 AM,32.0,26.1,79,30.03,10.0,East,3.5,-,N/A,,Clear,80,2013-03-16 12:56:00
6:56 AM,30.9,25.0,79,30.06,10.0,Calm,Calm,-,N/A,,Clear,0,2013-03-16 13:56:00
7:56 AM,32.0,28.0,85,30.08,10.0,Calm,Calm,-,N/A,,Clear,0,2013-03-16 14:56:00
8:56 AM,39.9,30.0,68,30.06,10.0,Calm,Calm,-,N/A,,Clear,0,2013-03-16 15:56:00
9:56 AM,46.9,30.9,54,30.05,10.0,SW,3.5,-,N/A,,Clear,220,2013-03-16 16:56:00
10:56 AM,54.0,30.0,40,30.03,10.0,South,6.9,-,N/A,,Clear,190,2013-03-16 17:56:00
11:56 AM,55.9,28.0,34,29.99,10.0,WSW,11.5,18.4,N/A,,Clear,240,2013-03-16 18:56:00
12:56 PM,57.0,25.0,29,29.97,10.0,Variable,6.9,-,N/A,,Clear,0,2013-03-16 19:56:00
1:56 PM,57.9,27.0,31,29.94,10.0,SW,8.1,-,N/A,,Partly Cloudy,220,2013-03-16 20:56:00
2:56 PM,59.0,23.0,25,29.91,10.0,West,16.1,24.2,N/A,,Partly Cloudy,280,2013-03-16 21:56:00
3:56 PM,59.0,21.0,23,29.88,10.0,WSW,12.7,-,N/A,,Clear,250,2013-03-16 22:56:00
4:56 PM,59.0,21.9,24,29.86,10.0,SSW,8.1,-,N/A,,Partly Cloudy,200,2013-03-16 23:56:00
5:56 PM,57.9,19.9,23,29.84,10.0,West,16.1,-,N/A,,Mostly Cloudy,280,2013-03-17 00:56:00
6:56 PM,52.0,21.0,30,29.85,10.0,West,3.5,-,N/A,,Partly Cloudy,270,2013-03-17 01:56:00
7:56 PM,48.0,25.0,41,29.86,10.0,WSW,4.6,-,N/A,,Mostly Cloudy,250,2013-03-17 02:56:00
8:56 PM,53.1,18.0,25,29.83,10.0,West,13.8,25.3,N/A,,Overcast,280,2013-03-17 03:56:00
9:56 PM,48.9,24.1,38,29.87,10.0,NW,16.1,26.5,N/A,,Scattered Clouds,310,2013-03-17 04:56:00
10:56 PM,45.0,26.1,48,29.86,10.0,Variable,4.6,-,N/A,,Clear,0,2013-03-17 05:56:00
11:56 PM,44.1,25.0,47,29.85,10.0,Calm,Calm,-,N/A,,Clear,0,2013-03-17 06:56:00